OPS 4682 DEB, 51508

Orbit data source: Space-Track

OPS 4682 DEB, 51508 is space debris in LEO originally from a launch on Sat, 03 Apr 1965 UTC launched from the Air Force Western Test Range (AFWTR). Debris objects in space refer to the collection of defunct objects orbiting the Earth. Examples of debris include non-operational satellites, rocket bodies, and fragments generated from explosions, collisions, or faulty payload assembly.

Loading next visibility...
Identifier
51508, 1965-027GU
Orbit
LEO
Country
Flag of USUS
Related business
Manufacturer
Unknown
Mission
Spacecraft
Bus & Motor
Unknown
Mass
Unknown
Launch date (UTC)
1965-04-03 (61 years ago)
Launch vehicle
Unknown
Launch site
Air Force Western Test Range (AFWTR)
Object type
Payload
Rocket body
Debris
Shape & HBR
Unknown shape, 0.1 m
Radar Cross Section
Medium (>0.1 m² and <1 m²)

Expand to show TLE details & history
Last TLE update: 2 days ago

TLE from 2 days ago
0 OPS 4682 DEB
1 51508U 65027GU  26261.60391500 -.00000332  00000-0 -11599-2 0  9997
2 51508  90.2607  18.3760 0029020 162.1605 259.0549 12.97977579616318
Epoch: 2026-09-18T14:29Z
TLE epoch observation values (Epoch: 2026-09-18T14:29:38.256Z)
Latitude
60.97411°
Longitude
162.97471°
Altitude
1,284.776 km
Speed
7.217 km/s
True Right ascension
01h 11m 38s
True Declination
60° 50' 17"
Sunlit
Object was in daylight at epoch
Visualization orbit readout
Latitude
Unknown
Longitude
Unknown
Altitude
Unknown
Speed
Unknown
Apparent Right ascension
Unknown
Apparent Declination
Unknown
Sunlit
N/A
Visualization observer readout
Local Sidereal Time
12:10:06
Azimuth
Unknown
Elevation
Unknown
Doppler factor
Unknown
Orbital elements
Apogee altitude
1,289.338 km
Perigee altitude
1,244.964 km
Semi-major axis
7,645.288 km
Eccentricity
0.0029
Inclination
90.2607°
RAAN
18.376°
Arg. of periapsis
162.1605°
True anomaly
258.72863°
Mean anomaly
259.0549°
Eccentric anomaly
258.89174°
Mean motion
3.24678 °/min
Orbital period
110.88 mins
BSTAR
-0.0011599
Loading maneuver chart data...
Computing Atmospheric mass density...
Loading historical data...
Loading historical data...
Loading historical data...
Loading historical data...
Loading historical data...
Loading historical data...
Loading historical data...

Documentation

Showing up to 5 results
|